FW5175 Weather Reports


time (UTC)temp
F
wind
direction
speed
knots
gust
knots
rain 1hr
in
rain 24hr
in
rain mn
in
humidity
%
barometer
mb
20260507110103 35 253 0.0 0.0 0.00 0.28 0.00 95 1014.2
20260507104603 34 259 0.0 0.0 0.00 0.31 0.00 95 1014.0
20260507103129 34 260 0.0 0.0 0.00 0.31 0.00 95 1013.8
20260507101557 34 260 0.0 0.0 0.00 0.31 0.00 95 1013.6
20260507100108 34 260 0.0 0.0 0.00 0.31 0.00 95 1013.7
20260507094558 34 260 0.0 0.0 0.00 0.37 0.00 95 1013.4
20260507093014 35 260 0.0 0.0 0.00 0.37 0.00 95 1013.5
20260507091507 35 260 0.0 2.6 0.00 0.37 0.00 95 1013.7
20260507090006 35 260 0.0 1.7 0.00 0.37 0.00 95 1013.9
20260507084517 36 260 0.0 1.7 0.00 0.38 0.00 95 1013.7
20260507083054 36 260 0.0 2.6 0.00 0.38 0.00 95 1013.9
20260507081557 36 260 0.0 2.6 0.00 0.38 0.00 95 1013.7
20260507080055 37 260 0.9 3.5 0.00 0.38 0.00 95 1013.7
20260507074555 36 259 0.9 3.5 0.00 0.38 0.00 95 1013.8
20260507073047 36 259 0.0 2.6 0.00 0.38 0.00 94 1013.6
20260507071548 37 268 0.9 4.3 0.00 0.38 0.00 94 1013.5
20260507070100 37 271 0.9 5.2 0.00 0.38 0.00 94 1013.4
20260507064550 37 257 1.7 5.2 0.00 0.38 0.00 94 1013.6
20260507063044 37 316 2.6 8.7 0.00 0.38 0.00 94 1013.8
20260507061543 37 284 1.7 5.2 0.00 0.38 0.00 93 1013.8
20260507060040 38 248 0.9 6.1 0.00 0.38 0.00 93 1013.6
20260507054559 38 261 2.6 7.0 0.00 0.38 0.38 93 1013.6
20260507053048 38 256 4.3 7.8 0.00 0.38 0.38 92 1013.6
20260507051548 38 249 1.7 7.8 0.00 0.38 0.38 92 1013.4
20260507050047 38 285 1.7 7.8 0.00 0.38 0.38 93 1013.6
20260507044546 38 222 1.7 7.0 0.00 0.38 0.38 92 1013.7
20260507043031 39 264 3.5 10.4 0.00 0.38 0.38 93 1013.6
20260507041529 39 247 4.3 9.6 0.00 0.38 0.38 94 1013.3
20260507040031 39 247 4.3 9.6 0.00 0.38 0.38 95 1013.3
20260507034526 39 264 4.3 12.2 0.00 0.38 0.38 97 1013.2
20260507033025 40 261 5.2 9.6 0.00 0.38 0.38 98 1013.0
20260507031521 40 246 4.3 11.3 0.00 0.38 0.38 98 1012.9
20260507030019 41 266 5.2 13.0 0.00 0.38 0.38 98 1013.0
20260507024516 42 250 4.3 8.7 0.00 0.38 0.38 99 1012.9
20260507023018 42 251 3.5 8.7 0.00 0.38 0.38 99 1013.2
20260507021523 41 246 0.9 2.6 0.00 0.38 0.38 99 1013.3
20260507020018 41 264 0.9 1.7 0.00 0.38 0.38 99 1012.9
20260507014518 41 264 0.0 1.7 0.00 0.38 0.38 99 1013.2
20260507013022 41 266 0.0 2.6 0.00 0.38 0.38 99 1013.1
20260507011522 41 266 0.0 2.6 0.00 0.38 0.38 99 1013.0
20260507010024 41 266 0.0 0.9 0.00 0.38 0.38 99 1012.8
20260507004517 42 266 0.0 2.6 0.00 0.38 0.38 99 1012.6
20260507003006 42 266 0.9 1.7 0.00 0.38 0.38 99 1012.5
20260507001506 42 266 0.0 1.7 0.00 0.38 0.38 99 1012.3
20260507000007 42 266 0.0 2.6 0.00 0.38 0.38 99 1012.0
20260506234504 42 265 0.9 2.6 0.00 0.38 0.38 99 1012.0
20260506233003 42 266 0.0 5.2 0.00 0.38 0.38 99 1011.8
20260506231505 42 266 0.9 3.5 0.00 0.38 0.38 99 1011.9
20260506230002 42 266 0.9 3.5 0.00 0.38 0.38 99 1011.8
20260506224601 42 250 0.0 3.5 0.00 0.38 0.38 99 1011.5
20260506223003 42 250 1.7 5.2 0.00 0.38 0.38 99 1011.5
20260506221504 42 268 1.7 7.0 0.00 0.38 0.38 99 1011.3
20260506220002 42 287 1.7 7.8 0.00 0.38 0.38 99 1011.1
20260506214601 42 249 0.9 7.8 0.00 0.43 0.38 98 1010.9
20260506213102 42 286 2.6 8.7 0.00 0.43 0.38 99 1010.5
20260506211559 42 270 2.6 9.6 0.00 0.43 0.38 99 1010.5
20260506210058 42 274 2.6 8.7 0.00 0.43 0.38 99 1010.5
20260506204558 42 270 1.7 7.8 0.00 0.43 0.38 99 1010.3
20260506203053 42 264 1.7 9.6 0.00 0.43 0.38 99 1010.2
20260506201551 42 266 2.6 8.7 0.00 0.43 0.38 99 1009.8
20260506200051 42 282 3.5 13.0 0.00 0.43 0.38 98 1009.7
20260506194547 43 203 2.6 8.7 0.00 0.43 0.38 98 1009.5
20260506193051 43 281 3.5 10.4 0.01 0.43 0.38 99 1009.1
20260506191545 42 324 3.5 10.4 0.01 0.43 0.38 99 1009.0
20260506190043 42 271 1.7 8.7 0.01 0.43 0.38 98 1009.0
20260506184541 42 264 2.6 9.6 0.02 0.47 0.38 98 1008.8
20260506183040 42 328 2.6 13.0 0.02 0.47 0.38 98 1008.8
20260506181550 43 270 2.6 7.0 0.02 0.46 0.37 98 1008.6
20260506180035 43 12 0.9 7.8 0.02 0.46 0.37 98 1008.3
20260506174536 43 325 1.7 4.3 0.01 0.45 0.36 98 1008.0
20260506173102 42 329 0.9 8.7 0.02 0.45 0.36 98 1007.8
20260506171541 42 318 4.3 10.4 0.02 0.44 0.35 98 1007.7
20260506170048 43 266 1.7 10.4 0.03 0.44 0.35 98 1007.6
20260506164532 43 285 1.7 7.0 0.04 0.44 0.35 98 1007.5
20260506163028 43 259 1.7 7.8 0.03 0.43 0.34 98 1007.6
20260506161521 43 286 3.5 7.8 0.03 0.42 0.33 97 1007.3
20260506160018 44 281 2.6 7.0 0.04 0.41 0.32 97 1007.2
20260506154516 45 273 0.9 3.5 0.05 0.41 0.32 97 1006.8
20260506153021 48 324 0.9 2.6 0.04 0.40 0.31 97 1006.8
20260506151513 49 254 0.9 2.6 0.03 0.39 0.30 97 1006.8
20260506150016 51 254 1.7 5.2 0.01 0.37 0.28 97 1006.8
20260506144514 52 228 1.7 7.0 0.00 0.36 0.27 98 1006.8
20260506143016 52 168 2.6 11.3 0.01 0.36 0.27 98 1006.4
20260506141507 52 162 4.3 9.6 0.02 0.36 0.27 98 1006.1
20260506140015 52 172 1.7 9.6 0.03 0.36 0.27 98 1006.0
20260506134506 52 166 3.5 13.0 0.05 0.36 0.27 98 1006.5
20260506133012 52 160 3.5 10.4 0.07 0.35 0.26 98 1006.4
20260506131511 52 174 2.6 12.2 0.08 0.34 0.25 97 1006.5
20260506130011 52 157 3.5 12.2 0.09 0.33 0.24 97 1006.4
20260506124509 52 197 5.2 10.4 0.08 0.31 0.22 96 1006.8
20260506123010 52 183 3.5 8.7 0.07 0.28 0.20 96 1007.0
20260506121508 52 191 3.5 8.7 0.05 0.26 0.17 96 1007.1
20260506120008 52 199 4.3 10.4 0.05 0.25 0.16 96 1006.7
20260506114508 52 207 6.1 13.9 0.04 0.23 0.14 95 1006.5
20260506113003 52 158 4.3 9.6 0.05 0.22 0.13 95 1006.4
20260506111504 52 170 5.2 14.8 0.05 0.21 0.12 95 1006.5